{"data":{"norad_id":56078,"epoch":"2026-05-25T02:01:42.254112Z","epoch_age_seconds":70860,"freshness":"FRESH","line1":"1 56078U 23043AJ  26145.08451683  .00000128  00000+0  30508-3 0  9990","line2":"2 56078  87.8990 263.8184 0002206 104.4779 255.6596 13.15547470153399","mean_motion":13.1554747,"eccentricity":0.0002206,"inclination_deg":87.899,"raan_deg":263.8184,"arg_perigee_deg":104.4779,"mean_anomaly_deg":255.6596,"bstar":0.00030508,"rev_number":15339,"period_min":109.46013221401,"perigee_km":1200.1027873808,"apogee_km":1203.4470445182,"semimajor_km":7579.9119159495,"source":"CELESTRAK","updated_at":"2026-05-25T13:38:22.707109Z"}}